TimeCST,TemperatureF,Dew PointF,Humidity,Sea Level PressureIn,VisibilityMPH,Wind Direction,Wind SpeedMPH,Gust SpeedMPH,PrecipitationIn,Events,Conditions,WindDirDegrees,DateUTC
12:00 AM,75,64,60,30.14,12,North,16.1,,,,Mostly Cloudy,10,2013-03-27 06:00:00
3:00 AM,72,62,64,30.11,12,North,13.8,,,,Mostly Cloudy,0,2013-03-27 09:00:00
5:00 AM,69.8,59.0,68,30.12,6.2,NNW,11.5,-,N/A,,Mostly Cloudy,340,2013-03-27 11:00:00
6:00 AM,68,60,67,30.15,12,NNW,11.5,,,,Scattered Clouds,340,2013-03-27 12:00:00
6:00 AM,68.0,59.0,73,30.12,6.2,NNW,11.5,-,N/A,,Partly Cloudy,340,2013-03-27 12:00:00
7:00 AM,69.8,60.8,73,30.15,6.2,NNW,11.5,-,N/A,,Partly Cloudy,330,2013-03-27 13:00:00
8:00 AM,73.4,60.8,65,30.18,6.2,North,15.0,-,N/A,,Partly Cloudy,350,2013-03-27 14:00:00
9:00 AM,76,63,56,30.20,12,NNW,10.4,,,,Scattered Clouds,340,2013-03-27 15:00:00
9:00 AM,75.2,62.6,65,30.20,-9999.0,NNW,10.4,-,N/A,,Clear,340,2013-03-27 15:00:00
10:00 AM,78.8,64.4,61,30.19,6.2,North,9.2,-,N/A,,Partly Cloudy,360,2013-03-27 16:00:00
11:00 AM,82.4,64.4,54,30.18,6.2,NNE,12.7,-,N/A,,Scattered Clouds,30,2013-03-27 17:00:00
12:00 PM,82,65,47,30.17,12,NE,13.8,,,,Partly Cloudy,50,2013-03-27 18:00:00
12:00 PM,82.4,64.4,54,30.16,6.2,NE,13.8,-,N/A,,Scattered Clouds,50,2013-03-27 18:00:00
1:00 PM,80.6,66.2,61,30.14,6.2,NE,11.5,-,N/A,,Mostly Cloudy,40,2013-03-27 19:00:00
2:00 PM,78.8,66.2,65,30.12,6.2,NE,11.5,-,N/A,,Mostly Cloudy,40,2013-03-27 20:00:00
3:00 PM,80,68,58,30.11,16,ENE,11.5,,,,Mostly Cloudy,60,2013-03-27 21:00:00
3:00 PM,78.8,68.0,69,30.10,6.2,ENE,11.5,-,N/A,,Mostly Cloudy,60,2013-03-27 21:00:00
4:00 PM,78.8,66.2,65,30.10,6.2,NE,11.5,-,N/A,,Mostly Cloudy,50,2013-03-27 22:00:00
5:00 PM,77.0,66.2,69,30.11,6.2,NE,9.2,-,N/A,,Mostly Cloudy,50,2013-03-27 23:00:00
6:00 PM,77,66,61,30.12,12,NE,9.2,,,,Mostly Cloudy,50,2013-03-28 00:00:00
6:00 PM,77.0,66.2,69,30.11,6.2,NE,9.2,-,N/A,,Mostly Cloudy,50,2013-03-28 00:00:00
9:00 PM,76,66,63,30.16,12,East,9.2,,,,Mostly Cloudy,80,2013-03-28 03:00:00